Hourly Data Report for August 07, 2021

TORONTO CITY
ONTARIO
Current Station Operator: ECCC - MSC

43°40'00.000" N
79°24'00.000" W
112.50 m
6158355
71508
XTO

Download Data

Hourly Data (August 2021)
Hourly Data Report for August 7, 2021
TIME
LST
Temp Definition
°C
Dew Point Definition
°C
Rel Hum Definition
%
Precip. Amount Definition
mm

Wind Dir Definition
10's deg

Wind Spd Definition
km/h
Visibility Definition
km
Stn Press Definition
kPa
Hmdx Definition


Wind Chill Definition


Weather Definition


00:00 22.9 19.9 83 0.0       100.27 30   LegendNANA
01:00 22.5 19.6 84 0.0       100.24 30   LegendNANA
02:00 22.2 18.6 80 0.0       100.22 29   LegendNANA
03:00 21.6 18.0 80 0.0       100.19 28   LegendNANA
04:00 20.8 18.1 85 0.0       100.21 27   LegendNANA
05:00 21.3 18.7 85 0.0       100.21 28   LegendNANA
06:00 21.0 18.4 85 0.0       100.24 27   LegendNANA
07:00 22.6 17.6 74 0.0       100.23 28   LegendNANA
08:00 24.1 17.4 66 0.0       100.27 30   LegendNANA
09:00 23.8 17.6 68 0.0       100.25 30   LegendNANA
10:00 24.6 17.2 63 0.0       100.25 30   LegendNANA
11:00 26.2 18.4 62 0.0       100.24 33   LegendNANA
12:00 26.3 18.5 62 0.0       100.25 33   LegendNANA
13:00 27.1 17.3 55 0.0       100.20 33   LegendNANA
14:00 24.6 19.0 71 0.3       100.18 31   LegendNANA
15:00 23.7 19.4 77 0.0       100.27 31   LegendNANA
16:00 23.5 19.0 76 0.0       100.22 30   LegendNANA
17:00 22.9 20.6 87 0.8       100.11 31   LegendNANA
18:00 23.7 19.9 79 0.0       100.08 31   LegendNANA
19:00 22.9 19.5 81 0.0       100.15 30   LegendNANA
20:00 21.9 19.3 85 0.0       100.23 29   LegendNANA
21:00 22.4 19.1 82 0.0       100.27 29   LegendNANA
22:00 21.9 19.3 85 0.0       100.28 29   LegendNANA
23:00 21.4 19.4 88 0.0       100.24 28   LegendNANA

Notes on Data Quality.

Legend

  • E = Estimated
  • M = Missing
  • NA = Not Available*
  • [empty] = Indicates an unobserved value
Date modified: